Regional Weather Roundup
Issued by NWS

Home | Current Version | Previous Version | Graphics & Text | Print | Product List | Glossary On
Versions: 1 2 3 4 5 6 7 8 9 10 11 12 13 14 15 16 17 18 19 20 21 22 23 24 25 26 27 28 29 30 31 32 33 34 35 36 37 38 39 40 41 42 43 44 45 46 47 48 49 50
000
ASUS43 KFSD 281010
RWRSD

WEATHER ROUNDUP FOR SOUTH DAKOTA
NATIONAL WEATHER SERVICE SIOUX FALLS SD
500 AM CDT FRI AUG 28 2015

NOTE: "FAIR" INDICATES FEW OR NO CLOUDS BELOW 12,000 FEET WITH NO
SIGNIFICANT WEATHER AND/OR OBSTRUCTIONS TO VISIBILITY.


SDZ001>005-009-010-012>017-281100-
NORTHWEST AND NORTH CENTRAL SOUTH DAKOTA

CITY           SKY/WX    TMP DP  RH WIND       PRES   REMARKS
BUFFALO          N/A     60  55  83 NW5       29.91S
FAITH            N/A     62  59  90 SW5       29.96R
MOBRIDGE       CLOUDY    64  64 100 SE3       29.92S
$$

SDZ012>016-024>037-041>051-057-063-072>074-281100-
SOUTHWEST AND SOUTH CENTRAL SOUTH DAKOTA

CITY           SKY/WX    TMP DP  RH WIND       PRES   REMARKS
RAPID CTY ARPT CLEAR     57  54  89 NW7       29.99R
PIERRE         CLOUDY    68  67  96 N3        29.91S
CUSTER         CLEAR     57  46  66 NW5       30.14R
ELLSWORTH AFB  CLEAR     58  54  87 NW2       29.98R
PHILIP         FOG       57  57 100 CALM      29.96R VSB 3/4
PINE RIDGE     CLEAR     49  47  93 CALM      30.01S
WINNER         PTSUNNY   67  65  93 NE6       29.90R
$$

SDZ004>011-016>023-039-040-281100-
NORTHEAST SOUTH DAKOTA

CITY           SKY/WX    TMP DP  RH WIND       PRES   REMARKS
ABERDEEN       PTCLDY    62  61  96 S3        29.92F FOG
WATERTOWN      CLOUDY    65  63  93 S5        29.95S
BROOKINGS      CLOUDY    64  61  88 SE7       29.96R
SISSETON         N/A     62  61  96 S9        29.92S
$$

SDZ017-020-022-023-036>040-048>070-281100-
SOUTHEAST SOUTH DAKOTA

CITY           SKY/WX    TMP DP  RH WIND       PRES   REMARKS
SIOUX FALLS    CLOUDY    64  62  93 E8        29.91S
HURON          CLOUDY    67  65  93 E3        29.92S
CHAMBERLAIN    CLOUDY    65  65 100 NE7       29.90R
MITCHELL       CLOUDY    66  65  96 SE6       29.89F
YANKTON        CLOUDY    64  63  94 E10       29.84F
$$

ABBREVIATIONS USED IN REMARKS
   TC - TEMPERATURE IN CELSIUS
  WCI - WIND CHILL INDEX
   HX - HEAT INDEX
  VSB - VISIBILITY



USA.gov is the U.S. government's official web portal to all federal, state and local government web resources and services.